GEFSNGP_500_meanwind_312.txt.gz
Wind_Speed
21 21 21 21 21 21 22 22 23 22 22 21 21 21 21 21 22 22 22 22 22 22 22 22 23 23 23 23 23 23 23 23 23 23 23 24 24 24 24 24 24 24 24 24
21 22 22 22 22 22 22 22 22 23 23 22 22 22 22 22 23 23 22 22 22 22 22 23 23 23 23 23 23 23 23 24 24 24 24 24 24 24 24 24 24 24 24 25
22 22 23 23 22 23 23 23 23 23 23 23 22 22 22 22 22 22 23 23 23 22 22 23 23 23 23 23 23 24 25 25 25 25 24 24 24 24 25 25 25 25 25 26
23 23 24 23 22 22 23 24 23 23 23 24 24 23 23 23 22 22 23 23 24 23 23 23 23 24 24 24 25 25 26 26 25 26 25 25 25 25 25 26 26 26 27 27
23 24 24 23 23 23 23 23 23 23 24 24 24 24 24 23 23 23 24 24 24 24 24 24 24 25 25 25 26 26 26 26 27 27 26 26 26 26 26 27 27 27 28 28
24 24 24 23 23 23 23 23 23 24 24 24 24 24 24 24 24 24 24 25 25 25 24 25 25 26 26 26 26 27 27 27 27 27 27 27 27 27 27 28 28 29 29 29
24 24 24 23 23 24 24 24 24 24 25 25 25 25 25 25 25 25 25 25 26 26 25 25 26 26 27 27 28 28 28 28 28 28 27 27 28 28 28 29 29 30 30 29
25 25 25 24 24 24 24 25 25 25 25 25 25 25 26 25 25 25 26 26 26 26 26 26 26 26 27 27 28 28 29 29 28 28 28 28 28 29 29 30 30 31 31 30
26 26 25 25 25 26 26 26 26 26 27 26 25 25 25 26 26 26 26 26 26 26 26 26 26 26 27 27 28 28 29 29 29 28 29 29 30 31 31 31 32 32 32 31
27 27 27 26 26 27 27 26 26 26 26 26 26 25 25 25 26 25 26 26 27 27 27 27 27 27 28 28 28 29 30 30 30 30 30 31 31 32 32 32 32 32 31 31
28 28 28 28 28 28 28 28 28 27 27 26 26 26 26 26 26 26 26 27 28 28 28 28 28 28 28 28 29 29 30 30 30 30 31 31 31 32 32 32 31 31 31 31
29 29 29 29 29 29 29 29 29 28 28 28 27 27 27 28 27 27 28 28 29 29 29 29 29 29 29 30 30 30 30 30 30 31 31 31 31 31 31 32 32 32 32 31
29 28 29 29 29 30 30 30 30 30 29 29 29 29 29 29 29 29 29 30 30 30 30 30 30 30 31 31 31 31 31 30 30 30 31 31 31 31 32 32 32 32 32 32
29 29 29 29 29 29 30 30 30 30 30 29 29 29 29 29 29 29 30 30 30 30 31 31 31 30 30 31 31 31 31 31 31 31 31 31 32 33 33 33 32 32 32 32
29 29 29 29 29 29 29 29 30 30 30 30 30 30 30 30 30 30 30 30 31 31 31 32 32 32 32 32 32 32 32 32 33 32 32 33 33 33 33 33 33 33 33 33
28 28 28 28 28 28 29 29 30 30 30 30 30 30 31 31 31 31 32 32 31 31 32 33 33 33 32 32 32 32 33 34 34 34 34 34 34 34 33 33 34 34 33 33
29 29 29 29 29 29 29 29 30 30 30 30 30 30 30 31 31 31 31 31 31 31 32 32 33 32 32 32 33 33 33 34 34 35 34 34 34 35 35 35 35 35 34 34
29 29 29 29 29 28 29 29 30 30 30 30 30 30 31 31 31 32 32 31 31 31 32 32 32 33 33 33 33 33 33 33 34 34 34 34 35 35 35 35 36 36 35 35
28 29 29 29 29 29 29 29 29 29 29 29 29 30 31 31 31 32 32 32 32 32 32 32 32 33 33 33 33 33 33 33 33 34 34 34 35 35 35 35 36 36 36 35
29 29 28 28 28 28 28 28 28 28 29 29 29 30 30 31 31 32 32 32 33 33 33 33 33 34 34 34 35 34 34 34 34 34 34 34 35 35 35 35 35 35 35 35
28 28 28 28 27 27 27 28 28 29 29 29 30 30 30 31 31 32 32 32 33 33 34 34 34 34 34 35 35 35 34 34 34 33 33 33 33 34 34 34 34 34 34 34
27 27 28 28 28 28 28 28 28 29 29 30 30 31 31 32 32 32 32 33 33 33 33 33 33 33 34 34 33 33 34 34 34 34 34 33 33 33 34 33 33 33 33 33
26 27 27 27 27 28 28 29 29 30 30 30 31 31 32 33 33 32 32 32 33 33 33 33 33 33 33 33 34 34 34 35 35 34 34 34 34 33 33 32 32 32 32 33
26 26 26 27 27 28 29 29 30 30 31 31 32 32 33 33 33 33 33 32 32 33 33 33 33 34 34 34 34 35 35 35 35 35 35 34 34 33 33 33 33 33 33 33
27 27 27 28 29 29 30 30 31 31 32 32 33 33 33 33 33 32 32 31 31 32 32 33 33 34 34 34 34 34 34 34 35 35 34 34 34 34 34 34 34 34 34 34
28 28 29 29 30 30 31 31 31 31 32 32 32 33 33 32 32 32 31 31 31 31 32 33 33 34 34 34 34 34 33 33 33 33 33 33 34 34 34 34 34 35 35 34
29 30 30 31 31 31 31 31 32 32 32 32 32 32 32 31 31 31 31 32 32 32 32 33 33 33 33 33 32 32 32 32 33 33 33 33 33 33 33 34 34 34 34 33

GEFSNGP_500_meanwind_318.txt.gz
Wind_Speed
23 23 23 23 24 24 24 24 25 25 26 27 27 27 27 27 27 27 26 26 26 26 26 26 26 25 25 25 25 25 25 25 25 25 24 24 24 24 23 24 24 24 24 24
24 24 24 26 25 25 26 26 27 27 28 28 28 28 28 27 27 27 26 26 26 26 26 26 26 25 25 26 25 25 25 26 26 25 25 25 25 25 24 24 25 25 25 25
24 24 26 27 24 26 27 27 27 28 28 28 28 27 27 27 27 27 27 27 27 26 26 26 26 26 26 26 26 26 26 25 25 26 26 25 25 25 26 25 26 26 26 26
25 25 27 25 24 26 27 27 27 28 28 27 27 27 28 28 28 28 28 28 27 27 27 27 27 27 27 27 27 26 26 25 25 26 26 27 27 27 27 26 26 27 26 26
25 26 27 26 25 26 26 27 27 28 28 28 27 27 28 29 29 29 29 28 28 27 27 28 28 27 27 27 27 27 26 26 26 27 27 27 27 27 27 26 27 27 27 27
25 26 27 27 25 25 27 28 27 27 28 28 28 28 29 29 29 29 29 29 28 28 28 28 28 27 28 27 27 27 27 27 27 28 28 28 27 28 28 28 27 27 28 28
26 27 28 27 25 25 27 27 26 27 28 28 28 29 29 30 29 29 29 29 28 28 28 28 28 28 28 28 28 28 28 28 28 29 28 28 28 29 29 29 29 29 29 29
28 28 28 27 27 27 28 27 28 29 29 29 28 28 29 29 29 29 29 29 29 29 28 29 29 29 29 29 29 30 29 29 30 30 30 30 30 30 30 30 30 30 30 30
29 29 28 28 29 29 29 29 30 30 30 29 29 29 30 30 30 30 29 30 30 30 29 29 30 30 29 29 30 30 30 30 30 30 31 31 31 31 31 31 31 31 31 31
30 30 30 30 30 30 31 31 31 31 30 30 30 30 30 30 30 30 30 30 30 30 30 30 30 31 31 31 30 30 30 31 31 32 32 33 33 32 32 32 32 32 31 31
31 31 31 30 31 31 32 32 31 31 31 31 32 31 31 31 30 30 29 29 29 29 29 29 29 29 30 30 30 30 30 31 31 32 32 33 33 33 32 32 33 33 32 32
32 31 32 31 31 31 31 31 32 32 32 32 32 32 32 31 31 30 29 29 29 29 29 29 29 29 30 30 31 31 31 31 32 32 32 32 33 33 33 33 33 33 33 33
32 32 32 32 32 32 32 31 32 32 32 33 33 33 32 32 31 30 30 30 29 30 30 30 30 30 30 31 32 32 31 31 31 32 32 32 33 33 33 33 34 34 34 34
32 32 32 32 32 32 32 32 32 32 32 32 32 32 32 33 32 32 32 31 31 31 31 32 32 32 32 32 32 33 33 32 32 32 32 33 33 34 34 34 34 35 35 35
33 32 32 32 31 32 32 32 32 32 32 32 32 32 32 32 32 32 32 32 32 32 32 32 32 32 33 33 33 33 33 33 33 32 33 33 33 34 34 34 34 35 35 35
32 32 31 31 31 31 32 32 32 31 31 31 31 32 32 31 31 31 31 32 33 33 34 34 33 33 34 34 34 34 34 35 34 34 33 33 34 34 35 35 34 34 35 35
31 31 30 30 30 30 30 30 31 31 30 31 31 31 31 32 32 32 31 32 33 34 34 34 34 34 35 35 35 35 35 34 34 35 35 35 35 35 35 36 36 36 36 35
30 30 31 30 30 30 30 30 30 30 30 30 31 31 32 32 33 33 33 33 34 34 35 35 35 35 35 35 35 35 35 35 35 35 35 36 36 36 36 36 37 37 36 36
29 30 30 30 30 30 30 30 30 30 30 31 31 31 32 32 32 33 33 34 34 34 35 36 36 36 36 36 35 35 35 35 35 35 36 36 36 35 35 36 36 36 36 36
29 29 29 29 29 30 30 30 31 31 31 31 32 32 32 32 32 33 33 33 33 34 35 36 36 36 36 35 35 35 35 34 35 35 35 35 35 35 36 36 36 36 36 36
29 29 29 29 29 29 30 30 31 31 31 31 32 32 33 33 33 34 34 34 34 35 35 35 35 35 35 34 34 34 34 34 34 34 34 34 35 35 36 36 36 35 35 35
29 29 29 29 29 29 30 30 30 31 31 32 33 33 33 34 34 34 34 35 35 35 35 34 34 34 34 33 33 33 34 34 34 35 35 35 34 34 35 34 34 34 34 34
29 29 29 30 30 30 31 31 31 31 31 32 32 33 33 33 34 34 34 35 35 35 34 34 34 34 34 33 33 34 34 34 34 35 35 34 34 35 34 34 34 34 34 34
29 30 31 31 31 32 32 32 33 32 32 32 32 32 32 32 33 33 34 34 34 33 33 33 33 33 33 33 34 34 35 35 35 35 35 34 34 35 35 35 34 34 34 34
31 31 31 32 32 32 32 32 32 32 32 32 32 32 33 33 34 34 35 34 34 34 34 34 34 34 34 34 35 35 35 35 35 35 35 35 35 35 35 34 34 34 34 34
32 32 32 32 32 32 32 32 32 32 32 32 33 33 34 34 34 34 34 34 34 33 34 34 34 34 34 35 35 35 35 35 35 34 34 35 34 34 34 34 34 34 34 34
31 31 32 32 32 33 33 33 33 33 33 33 34 34 34 35 35 34 33 33 33 33 33 33 34 34 34 34 34 35 35 34 34 34 34 34 34 34 34 34 34 34 34 34

GEFSNGP_500_meanwind_324.txt.gz
Wind_Speed
22 23 23 23 23 23 25 27 27 25 25 24 25 25 24 25 25 24 24 24 25 24 24 24 24 24 24 24 24 24 24 23 24 24 24 24 24 24 24 24 23 23 24 24
23 24 25 26 25 25 25 25 27 27 26 26 26 25 25 25 25 25 25 25 25 25 25 25 25 25 24 24 25 25 25 25 24 25 25 25 25 25 25 25 24 24 24 24
24 24 26 26 24 25 26 26 27 27 26 26 26 26 26 26 26 26 26 25 25 25 26 26 26 25 25 25 25 25 25 25 25 26 25 26 26 26 26 26 25 25 25 25
26 26 27 25 25 25 26 26 27 27 26 26 25 26 26 26 27 26 26 26 26 26 26 27 26 25 25 26 26 25 26 26 26 26 26 26 27 27 27 27 26 25 26 26
26 27 27 26 25 25 26 26 26 27 26 26 26 26 26 26 27 27 27 27 27 27 27 27 27 27 27 27 27 27 27 27 27 27 27 28 28 28 28 28 28 27 26 27
27 28 28 26 26 26 27 27 26 26 27 27 27 27 27 27 27 27 27 27 27 27 27 27 27 28 28 29 29 28 28 28 28 28 29 29 29 29 29 29 28 28 28 28
27 28 28 27 26 26 27 27 26 26 26 27 28 28 28 28 28 27 27 28 28 27 27 28 28 29 29 29 29 29 29 29 30 29 29 29 30 29 29 29 29 29 29 30
27 28 27 26 26 26 27 27 28 27 27 28 28 28 28 29 29 28 28 29 29 29 28 28 29 29 29 29 29 30 30 30 31 31 31 30 30 31 31 30 30 30 30 31
28 28 28 28 28 27 27 27 27 27 27 28 28 28 28 29 30 29 29 30 30 30 30 30 30 29 29 29 30 30 30 30 31 31 31 31 31 32 32 32 31 31 32 32
28 28 28 28 28 28 29 29 29 29 29 28 28 27 28 29 30 30 30 31 31 31 31 31 31 30 29 30 30 30 31 31 31 31 31 32 32 33 33 33 33 33 33 33
29 28 29 29 29 29 29 30 30 29 29 29 29 29 29 29 30 30 31 31 32 32 32 32 31 30 30 30 30 30 30 30 30 30 30 31 32 33 33 34 34 34 34 33
29 28 29 29 29 29 29 30 30 30 30 30 30 30 30 30 30 31 31 32 31 31 32 31 31 31 30 30 30 30 31 31 31 31 31 31 32 33 33 33 33 34 34 34
29 29 30 30 30 30 30 30 30 30 30 30 30 30 31 31 31 31 32 32 32 31 31 31 31 30 30 30 30 31 31 31 31 31 32 32 32 33 33 33 34 34 35 35
28 29 29 29 29 30 30 30 29 30 30 30 30 31 31 32 32 31 31 32 32 31 31 31 31 31 31 31 31 31 31 31 31 32 33 33 33 33 33 34 34 34 35 35
28 28 28 28 28 29 29 30 30 29 30 29 30 31 31 31 31 31 31 32 32 32 32 31 31 31 32 32 33 33 33 33 34 34 34 34 34 34 34 34 34 35 35 35
27 28 27 27 28 28 29 30 30 30 29 29 29 30 31 31 32 32 31 32 32 32 32 31 32 32 32 33 33 34 34 34 35 35 34 34 34 35 34 34 34 35 35 36
27 27 27 27 27 28 28 29 29 30 30 30 30 30 30 31 31 31 31 32 32 32 32 32 32 32 33 33 33 34 34 34 35 35 34 34 34 34 34 34 35 35 35 35
26 27 27 27 27 27 27 28 28 29 30 30 30 30 30 30 30 30 31 31 31 31 31 31 32 32 33 33 33 33 33 33 33 33 33 34 34 34 33 34 34 34 34 35
27 27 27 27 27 27 27 27 28 28 29 29 29 29 30 30 30 30 31 31 31 31 31 31 31 32 32 33 33 34 33 33 33 32 32 32 32 33 33 34 34 35 35 35
27 27 27 27 27 27 27 28 28 28 28 28 28 29 29 30 30 30 31 31 31 31 31 31 31 32 33 33 33 33 33 33 33 33 32 32 32 33 33 33 34 34 35 35
27 27 27 27 27 27 27 27 28 28 28 28 29 29 29 30 30 30 30 30 30 30 31 31 31 32 33 33 32 32 33 33 33 32 32 32 32 33 33 34 34 34 34 34
26 27 27 28 27 27 27 27 27 27 27 28 28 29 29 30 30 30 30 30 30 31 31 32 33 33 33 33 33 33 33 32 32 32 33 33 33 33 34 34 34 34 34 34
26 27 28 28 29 29 28 28 27 27 28 28 29 29 29 29 29 30 30 30 31 31 32 32 32 32 32 32 32 32 32 32 32 33 33 34 34 34 34 34 34 34 34 34
27 28 28 29 29 29 29 29 29 29 29 29 29 29 29 29 29 30 30 31 31 31 31 31 32 32 32 31 31 31 32 32 33 33 33 34 34 34 34 34 35 34 34 34
28 28 29 29 29 28 28 28 28 28 29 29 29 29 29 29 30 30 30 30 30 31 31 31 32 32 31 31 31 31 31 32 32 32 33 33 33 34 34 34 34 34 34 34
28 28 28 28 28 28 27 27 28 28 29 28 28 28 29 29 29 30 30 30 30 31 31 31 31 31 31 31 31 32 32 32 33 33 33 33 33 33 33 34 34 34 35 35
28 28 28 27 28 28 28 28 28 28 29 29 29 29 30 30 30 30 30 30 29 30 30 30 31 31 31 32 32 32 32 32 32 32 33 33 33 34 34 34 35 35 35 35

GEFSNGP_500_meanwind_330.txt.gz
Wind_Speed
24 24 25 25 26 26 28 29 29 28 27 24 25 25 25 25 25 25 25 25 25 24 24 24 24 24 24 24 24 25 25 25 25 25 25 25 25 25 25 26 26 26 26 26
26 26 27 28 27 27 28 28 29 29 28 26 27 28 27 27 27 27 26 26 26 26 25 25 25 25 25 25 25 26 25 25 26 26 26 26 27 27 27 27 27 28 28 27
28 27 29 30 28 28 29 28 29 29 28 27 28 28 28 28 28 28 28 28 28 27 27 27 27 26 25 26 26 26 26 26 27 28 27 27 28 28 28 28 28 28 28 28
29 29 31 29 29 29 30 29 29 29 28 28 28 27 28 29 29 29 29 29 29 29 28 28 28 27 27 27 27 27 27 27 27 27 28 28 29 29 29 29 30 29 29 29
31 32 32 30 29 30 30 30 29 29 29 28 28 29 29 29 30 30 30 30 29 29 29 29 29 28 28 29 29 29 29 28 28 28 28 29 30 30 30 30 30 31 31 30
31 32 32 30 29 30 31 30 28 28 28 28 29 30 29 30 30 30 31 31 30 30 30 29 29 29 29 29 30 29 30 30 30 30 31 31 31 32 32 32 32 31 31 32
32 32 32 30 30 30 30 29 29 28 28 29 29 30 30 30 30 30 30 30 30 30 30 29 29 29 30 30 30 30 30 31 31 32 32 33 33 33 33 33 32 33 32 32
32 32 31 29 29 30 30 31 30 30 29 29 30 30 30 30 31 31 31 31 30 30 30 30 30 31 31 31 31 31 32 32 32 33 33 34 34 34 34 34 34 34 34 33
32 32 30 30 30 30 30 31 31 31 30 30 31 31 31 32 32 32 31 31 30 30 30 30 31 31 32 32 32 32 32 33 33 34 33 33 33 34 34 34 34 34 34 35
30 30 31 31 31 31 30 30 31 30 30 30 31 31 31 32 32 32 32 31 31 31 31 32 32 32 32 33 33 33 33 33 34 34 34 34 34 33 33 34 34 34 34 34
30 30 30 30 31 31 31 30 30 30 31 31 31 31 31 31 31 31 31 31 31 32 32 32 32 32 33 33 33 33 33 33 34 33 34 34 34 34 34 34 34 33 33 33
29 29 29 29 29 30 30 30 30 30 31 31 31 31 31 30 30 29 30 30 30 31 32 32 33 33 33 34 33 33 34 34 33 33 33 33 33 33 33 34 33 33 32 32
29 29 29 28 28 28 28 28 28 28 29 29 29 29 29 29 29 29 29 29 29 30 30 31 32 33 33 33 32 33 33 33 32 33 33 33 33 33 33 33 33 33 33 33
28 28 28 27 27 27 28 28 27 27 28 29 29 29 29 29 29 30 29 29 29 30 30 31 31 31 31 31 31 31 32 32 32 32 33 33 32 33 33 33 33 33 34 34
27 27 27 27 27 27 27 28 28 28 28 29 30 30 29 30 30 30 30 30 30 30 31 31 31 31 31 31 31 31 31 32 32 33 33 33 34 34 34 34 34 35 35 35
27 26 27 27 27 27 28 28 29 29 29 29 29 29 28 29 30 30 29 29 30 30 30 30 31 31 31 31 31 31 31 33 33 34 34 34 35 35 34 34 34 34 34 35
27 27 26 27 27 27 28 29 29 29 29 28 28 28 28 28 28 28 29 29 30 30 29 30 30 31 31 32 32 32 33 33 34 34 35 35 35 34 34 34 34 34 34 34
27 28 27 27 26 27 28 29 29 28 28 27 27 28 28 28 27 27 28 28 29 29 29 30 30 31 31 32 32 33 33 33 34 35 35 35 35 34 34 34 34 34 34 34
27 28 27 27 27 27 28 28 28 27 27 27 27 28 29 29 28 28 28 28 28 29 29 29 29 30 31 32 32 32 32 32 33 33 33 33 33 34 34 33 33 34 33 34
25 26 27 27 27 28 28 27 27 27 27 28 28 28 28 29 28 28 28 28 29 29 29 30 30 30 31 31 32 31 31 31 32 33 33 33 34 33 33 32 32 33 33 34
27 27 28 29 29 28 28 28 28 28 28 28 28 28 28 28 29 29 29 29 29 29 30 30 31 31 31 32 31 31 31 32 32 33 33 33 33 33 32 32 32 33 33 33
28 29 29 30 30 30 29 29 29 29 29 29 29 29 29 29 30 30 30 30 30 30 30 31 31 32 32 32 32 32 32 33 33 32 33 33 33 33 33 33 33 33 33 33
28 29 29 30 30 30 29 29 29 29 29 29 29 29 29 29 29 29 29 29 30 30 31 31 31 32 32 32 32 32 32 32 32 33 32 32 32 32 32 33 33 34 34 34
28 29 29 30 30 30 29 28 28 28 28 28 29 29 28 29 29 30 30 30 31 31 31 31 31 31 31 31 31 31 32 32 32 32 32 32 32 32 32 32 32 33 33 33
28 29 29 29 29 29 29 28 28 28 28 28 29 29 29 30 30 31 31 31 32 32 32 32 32 31 31 31 31 31 31 31 31 31 31 31 31 32 32 33 33 33 33 33
28 28 28 28 29 28 28 28 28 28 28 28 28 29 29 30 31 31 31 31 31 32 32 32 32 31 31 31 31 31 31 31 31 30 30 30 31 32 32 33 34 34 33 33
28 27 27 28 28 28 28 28 28 28 28 28 28 28 29 30 31 31 31 31 31 32 32 31 31 31 31 31 31 31 31 31 31 31 31 31 31 32 32 32 33 34 34 34

GEFSNGP_500_meanwind_336.txt.gz
Wind_Speed
24 24 25 25 25 26 27 27 28 27 27 26 26 25 25 26 27 27 27 26 26 26 26 26 26 25 26 26 27 27 27 27 26 26 26 26 26 26 26 27 27 27 27 27
25 26 26 27 27 27 28 28 29 29 28 27 28 27 27 27 28 28 28 28 28 28 28 28 27 27 26 27 28 28 28 28 28 28 28 27 27 27 27 27 28 28 29 29
25 26 27 28 27 28 29 29 29 29 29 28 28 28 28 28 28 28 28 28 29 29 29 29 29 28 28 28 28 29 28 28 28 28 28 28 28 28 29 29 29 29 30 30
25 25 27 27 27 28 28 28 28 29 29 29 29 29 29 29 29 28 29 29 29 30 30 30 30 30 29 28 28 29 29 28 28 28 28 29 29 29 29 30 30 30 30 30
25 27 27 27 28 27 28 27 27 27 28 28 29 30 29 29 29 29 29 29 29 30 30 30 30 30 29 29 29 29 29 29 29 29 29 29 30 30 30 31 31 31 32 32
25 26 27 27 27 27 28 28 26 27 27 27 28 29 28 29 29 28 28 28 29 30 30 31 30 30 30 30 29 29 30 30 30 30 29 30 30 30 31 32 32 32 32 33
25 26 27 26 26 27 28 27 26 26 27 27 27 28 28 28 28 29 29 30 30 30 31 31 31 30 30 30 30 30 30 31 31 31 31 32 32 32 32 32 32 33 33 33
26 27 28 27 26 26 27 27 26 26 26 26 27 27 27 28 28 28 29 30 30 31 31 30 30 30 30 30 30 31 31 31 32 32 32 33 33 33 32 32 33 33 33 34
27 27 28 27 27 27 27 27 26 26 26 26 26 26 27 27 27 28 28 29 29 29 29 29 29 29 29 29 30 31 32 32 32 32 33 33 34 34 33 33 33 33 33 34
28 27 28 28 27 26 26 26 26 26 26 26 26 26 26 27 27 28 28 28 29 28 28 28 29 29 29 30 31 31 32 32 33 33 33 33 33 33 33 33 33 33 33 33
28 28 28 27 28 27 27 26 27 27 27 27 26 26 26 27 27 28 28 28 28 28 28 28 28 29 29 30 30 31 31 32 32 33 33 33 33 33 33 33 33 32 32 32
28 27 28 27 27 27 27 26 25 26 26 26 26 26 26 27 27 28 28 28 27 27 27 27 28 28 29 29 30 31 31 32 32 32 32 32 32 32 31 31 31 31 32 32
28 28 28 26 26 26 26 25 24 25 25 25 25 25 26 25 26 26 27 27 27 27 27 27 27 28 29 29 29 30 31 31 32 32 32 32 32 31 30 30 31 31 31 31
27 27 27 26 26 25 25 25 25 25 26 26 25 25 25 25 26 26 27 28 28 28 28 28 27 28 28 29 30 31 31 31 31 31 32 32 31 30 31 31 31 31 31 31
27 28 27 26 26 25 25 25 24 24 25 25 25 26 25 25 26 26 26 27 27 28 28 29 28 28 28 28 29 30 30 31 31 31 31 30 30 31 32 32 32 31 32 32
27 27 27 26 25 25 25 25 25 25 25 24 25 25 26 26 26 26 26 26 27 27 28 28 28 28 28 28 29 29 29 30 30 29 29 30 31 31 31 32 32 32 32 33
26 26 26 25 25 25 25 24 24 25 25 25 25 25 25 26 26 26 26 26 27 27 27 27 27 27 27 27 27 28 28 28 28 28 29 29 29 29 30 31 32 32 32 31
25 25 25 25 24 25 25 25 25 25 25 25 25 25 26 26 26 26 26 26 26 26 26 26 26 26 27 27 28 28 28 28 28 28 29 29 29 30 30 30 31 31 32 32
23 24 24 25 24 24 24 25 25 26 26 27 27 27 27 27 26 26 26 26 26 26 25 25 25 26 26 26 27 27 27 27 28 29 29 30 30 31 31 31 31 32 32 32
23 23 24 24 23 24 25 26 26 26 27 28 28 28 27 27 27 27 27 27 27 27 26 26 26 26 27 26 26 26 27 28 28 29 29 29 30 31 32 33 33 32 32 32
23 24 24 24 25 25 26 27 27 28 28 29 29 29 28 27 27 27 27 26 26 26 26 26 26 26 26 26 26 26 27 28 29 29 30 30 30 30 31 31 32 32 32 32
24 24 25 25 25 26 27 28 28 28 28 29 29 28 27 27 26 26 26 26 25 26 26 26 26 26 27 26 26 27 28 28 29 30 30 30 30 30 30 30 30 31 31 31
24 25 25 26 26 27 27 27 28 29 29 28 28 28 28 27 26 26 26 26 26 26 26 26 27 26 27 27 27 27 28 28 29 30 30 30 30 30 30 29 29 29 30 31
25 26 26 26 26 26 26 27 28 28 29 28 28 27 27 27 26 27 27 27 27 27 27 27 27 27 27 27 28 28 28 28 29 29 29 30 30 30 30 30 29 29 29 30
26 26 25 25 25 25 25 26 27 28 28 28 27 27 27 26 26 26 27 27 27 27 27 27 27 27 28 28 28 28 28 29 29 30 30 30 30 30 30 30 30 30 29 29
25 25 25 25 26 26 26 27 27 28 28 28 27 27 27 27 27 27 27 28 27 27 27 27 27 28 28 28 28 28 29 29 30 30 30 30 31 30 30 30 30 30 29 29
25 25 26 26 26 26 27 27 27 27 26 27 27 26 26 26 26 26 26 27 27 26 26 27 27 28 28 29 28 29 29 30 30 31 30 31 31 30 30 30 30 30 30 30

GEFSNGP_500_meanwind_342.txt.gz
Wind_Speed
23 22 22 24 24 24 25 25 27 28 29 28 28 30 31 30 29 29 28 28 28 28 28 28 29 28 28 28 27 27 27 28 27 28 28 28 28 27 27 27 27 28 28 28
23 23 23 23 24 25 25 26 27 28 30 29 29 30 30 30 30 31 31 30 29 29 29 29 29 29 29 29 29 30 30 30 29 29 29 29 29 29 29 29 29 29 29 29
23 23 24 24 24 25 25 26 27 29 29 28 29 30 30 29 29 30 31 31 31 30 30 29 30 30 31 31 31 31 31 31 30 30 30 30 30 30 30 30 30 30 30 31
23 23 25 25 25 26 26 27 28 29 29 29 30 30 31 30 30 30 31 31 31 31 31 31 30 30 31 31 32 32 31 31 31 31 31 31 30 30 31 31 31 31 31 31
24 25 26 25 24 25 26 27 27 28 28 29 30 30 30 30 31 31 31 31 32 32 31 31 31 31 31 32 32 32 32 32 31 31 31 31 30 31 31 31 31 31 31 31
24 25 26 26 25 26 27 28 27 27 27 28 28 29 29 30 31 31 31 31 32 32 32 32 32 32 32 32 32 32 32 32 32 31 31 31 31 31 31 31 31 31 31 31
24 25 26 26 25 25 26 27 27 27 27 27 28 28 29 29 30 30 30 31 31 32 32 32 32 32 32 32 32 33 33 32 32 32 32 32 32 31 31 31 32 32 31 31
25 26 27 26 26 26 27 27 28 28 28 29 29 29 29 30 31 30 30 30 30 31 31 31 31 32 32 32 32 32 32 32 32 31 31 31 32 32 32 32 32 32 32 32
26 26 27 27 27 28 29 29 29 30 30 31 31 31 31 31 31 31 31 30 30 30 30 30 31 31 31 31 31 31 30 31 31 31 31 32 32 32 32 32 33 33 32 32
28 27 28 28 29 29 30 30 30 31 31 31 31 32 31 31 31 31 30 29 29 29 29 30 30 31 30 30 30 30 31 31 31 31 31 31 31 31 32 32 32 32 32 33
29 29 29 30 30 31 31 32 32 31 30 30 30 30 30 30 30 30 30 29 29 29 29 29 30 30 30 31 31 31 31 31 31 31 31 31 31 32 32 32 32 32 32 33
30 30 31 30 31 31 32 32 32 32 30 30 29 29 30 30 30 30 30 29 29 30 30 29 29 30 30 30 30 30 31 31 31 31 31 31 31 31 32 32 32 33 32 32
32 32 32 32 32 32 32 32 32 31 31 30 29 30 30 30 29 29 29 28 29 29 29 29 29 29 30 30 30 31 31 31 31 31 31 31 31 31 31 32 33 33 33 33
32 33 33 32 32 32 31 31 31 30 30 30 30 29 28 28 28 28 29 28 29 28 28 29 28 28 29 30 31 31 31 31 31 31 31 31 31 31 31 32 33 33 33 34
31 32 32 32 32 32 31 31 31 30 29 29 30 29 28 28 28 28 28 28 28 28 28 28 28 28 29 30 30 31 31 31 31 31 31 30 31 31 31 32 33 33 33 33
29 30 30 31 31 30 30 30 30 29 28 28 29 29 28 28 29 29 28 28 28 28 27 27 28 28 29 29 30 30 30 29 30 30 30 30 30 30 31 31 32 32 32 32
28 28 29 29 28 28 28 28 28 27 28 28 28 28 28 28 27 28 28 27 27 28 27 27 28 28 28 29 29 28 28 28 28 28 29 30 30 30 29 30 31 32 32 32
28 28 28 28 27 27 26 26 26 26 26 27 28 28 27 27 27 28 28 27 27 27 27 28 28 28 28 28 28 28 27 27 28 29 29 29 29 29 29 29 30 30 30 31
27 27 28 28 28 28 27 26 26 27 27 28 28 27 27 27 28 28 28 28 28 28 28 28 28 28 28 28 28 28 28 28 29 29 29 29 28 28 28 29 29 30 30 30
26 26 27 27 27 27 27 27 27 28 28 27 28 27 27 28 28 29 29 29 29 29 29 29 29 28 28 28 28 28 28 28 28 28 28 28 28 28 29 29 29 29 29 29
26 25 26 26 27 27 27 27 27 27 27 28 28 28 28 28 29 29 29 29 29 30 29 29 29 29 29 29 28 28 28 28 28 28 28 28 28 28 28 29 29 28 28 28
26 27 27 27 27 27 27 27 27 27 27 27 28 29 29 29 29 29 29 28 28 28 29 28 28 29 29 29 28 28 28 28 29 29 29 28 28 28 28 28 28 28 28 28
26 27 27 27 27 27 27 27 27 27 27 28 28 29 29 29 28 28 28 28 28 28 27 27 27 27 27 27 27 27 27 27 28 28 28 28 28 28 28 28 28 28 28 29
26 26 27 27 27 27 27 27 27 27 28 28 28 28 28 28 28 28 28 28 28 28 28 28 28 28 28 27 27 26 27 27 27 27 27 27 27 28 28 28 29 29 29 30
26 27 27 28 28 28 27 28 28 28 28 28 27 27 28 28 28 28 28 28 28 28 28 27 27 27 27 27 26 26 26 26 27 27 27 27 28 28 29 29 29 29 30 30
25 26 26 27 28 28 28 28 29 28 28 27 27 27 28 28 28 28 28 28 27 27 27 27 26 27 27 26 26 26 26 26 27 27 28 28 28 29 29 30 30 30 30 30
26 27 27 28 28 29 29 29 28 27 26 26 26 27 27 27 27 27 27 28 27 27 26 26 26 26 27 26 26 26 26 27 27 28 28 28 28 29 29 30 30 31 31 31

GEFSNGP_500_meanwind_348.txt.gz
Wind_Speed
21 22 22 21 21 21 22 22 23 23 23 23 23 23 23 24 24 25 25 25 26 26 25 25 25 25 25 26 26 26 27 27 27 27 27 27 27 27 27 27 26 26 26 26
21 22 23 23 23 23 23 23 22 23 23 22 22 23 23 24 24 25 25 26 26 26 25 26 26 25 26 27 27 27 28 28 28 28 28 27 27 27 27 27 27 27 27 27
21 22 22 24 23 22 23 24 23 23 23 23 24 24 25 25 26 26 27 27 26 27 27 27 27 27 28 28 28 28 28 29 29 29 29 28 28 28 28 28 28 28 29 28
22 20 21 22 22 22 22 23 23 23 23 24 25 25 25 26 27 28 29 29 28 28 29 28 28 28 29 29 29 29 29 30 30 30 30 30 30 30 30 30 30 30 30 30
22 22 22 22 22 22 22 22 23 23 23 24 25 26 26 28 29 30 30 30 30 30 30 30 30 30 30 30 30 30 30 30 30 30 30 30 30 30 30 30 30 30 31 31
22 23 23 21 21 21 23 24 24 24 25 26 27 28 28 29 30 31 32 32 31 31 30 30 30 30 30 30 30 30 29 29 30 30 30 29 29 30 31 30 30 30 31 31
22 24 24 22 22 23 24 25 25 25 26 27 28 29 29 30 31 32 32 32 32 31 31 31 30 30 31 31 30 29 29 29 29 29 29 29 29 30 30 31 31 31 31 32
24 25 24 22 23 23 24 25 26 27 27 27 28 29 29 29 30 31 31 31 31 31 31 30 31 31 31 31 30 30 30 29 30 30 30 30 30 30 30 31 31 31 32 32
24 25 24 23 24 24 25 26 27 28 28 28 28 28 29 28 29 29 29 29 29 30 29 29 29 30 31 31 32 31 31 31 31 31 31 31 31 31 30 31 31 32 32 32
25 25 25 25 25 27 27 28 27 27 27 28 28 28 28 28 27 27 27 27 27 27 28 28 28 29 30 31 32 32 32 32 31 31 32 31 32 32 31 32 32 32 32 32
25 25 26 26 27 27 28 28 28 28 28 27 27 27 28 28 27 26 27 26 26 26 27 28 28 28 29 29 30 30 31 32 32 32 32 32 32 31 31 31 31 32 32 32
26 27 28 27 27 28 27 27 28 28 28 28 28 28 28 28 27 27 27 26 26 26 27 27 27 28 28 29 30 30 30 31 31 32 32 32 31 31 31 31 31 31 31 31
27 28 29 29 29 29 29 29 29 29 28 29 29 30 30 29 28 27 26 26 26 27 27 27 27 27 28 29 29 30 30 30 30 30 31 30 30 31 30 30 30 30 30 30
28 28 29 29 29 29 29 30 30 31 30 30 30 30 30 30 29 27 27 26 27 27 27 28 28 27 27 28 28 29 30 30 30 30 29 29 29 29 29 29 30 29 29 29
28 29 29 29 29 29 30 30 31 31 31 30 30 31 31 30 29 28 27 27 28 28 28 28 28 27 27 27 28 28 29 29 29 29 28 28 28 28 28 29 29 29 29 29
28 28 29 29 29 29 30 30 31 30 30 29 30 30 31 31 30 28 28 28 28 28 28 28 28 28 27 27 26 26 27 27 28 28 27 27 27 27 27 27 28 29 29 29
27 28 28 28 28 28 28 28 29 29 29 28 29 29 29 29 29 28 28 28 28 28 27 28 28 27 27 27 26 26 26 26 27 27 27 26 26 26 26 26 27 28 29 29
26 27 27 27 28 28 28 27 27 27 28 28 28 28 29 28 28 28 28 28 28 27 27 27 27 27 27 27 27 27 26 26 26 26 26 26 26 26 26 27 27 28 29 29
27 27 27 27 28 28 28 27 27 27 28 28 28 28 28 29 29 29 29 28 28 27 27 27 27 26 27 27 27 26 26 25 25 25 25 26 26 26 26 27 28 28 28 29
26 26 27 26 26 26 27 27 28 28 28 28 28 29 29 29 28 28 28 28 28 27 27 26 26 26 26 27 27 26 26 26 26 26 25 25 26 26 26 27 27 28 28 29
25 25 25 25 25 26 27 28 28 28 28 28 28 28 28 28 28 27 27 27 27 27 27 27 26 26 26 26 26 26 25 25 25 26 25 25 26 26 27 27 28 28 28 28
25 25 25 24 24 25 26 26 27 27 27 27 27 27 27 26 26 26 26 26 26 27 27 26 26 26 26 26 26 26 26 26 26 26 25 26 26 26 27 27 27 28 28 28
26 25 25 25 25 25 25 26 26 27 27 27 27 27 27 27 26 25 25 25 26 26 27 26 26 27 26 26 26 27 27 27 27 27 26 26 26 26 27 27 27 28 28 28
25 24 25 25 26 26 26 26 25 26 26 27 27 27 27 27 27 26 25 25 26 26 27 27 27 27 27 27 27 27 27 27 26 26 26 26 27 27 27 27 27 27 28 28
24 24 24 24 25 25 25 25 25 25 26 26 26 27 27 26 26 25 25 25 26 27 27 28 27 27 27 27 27 27 27 27 27 27 27 27 27 27 27 27 27 27 27 27
25 25 25 25 25 25 25 25 25 25 26 26 27 27 26 25 25 25 25 25 25 26 26 26 27 27 27 27 27 27 27 27 27 27 27 27 27 27 27 27 27 27 27 27
25 25 25 25 25 25 25 25 25 26 26 27 26 25 24 24 25 25 25 25 25 26 26 26 25 25 25 26 26 26 26 26 27 27 27 27 27 27 26 26 27 27 27 27